FW0428 Weather Reports


Display with metric or nautical units.
time (UTC)temp
F
wind
direction
speed
MPH
gust
MPH
rain 1hr
in
rain 24hr
in
rain mn
in
humidity
%
barometer
mb
20260507070036 53 260 2.0 3.0 0.00 0.00 0.00 86 1015.3
20260507064528 53 292 1.0 4.0 0.00 0.00 0.00 86 1015.6
20260507063001 53 233 1.0 4.0 0.00 0.00 0.00 86 1015.5
20260507061556 54 253 2.0 4.0 0.00 0.00 0.00 86 1015.6
20260507060023 54 238 1.0 8.0 0.00 0.00 0.00 86 1015.6
20260507054542 54 246 3.0 5.0 0.00 0.00 0.00 85 1015.5
20260507053101 54 259 1.0 5.0 0.00 0.00 0.00 85 1015.4
20260507051512 54 267 1.0 3.0 0.00 0.00 0.00 86 1015.7
20260507050156 54 157 3.0 6.0 0.00 0.00 0.00 85 1015.6
20260507031700 56 253 2.0 5.0 0.00 0.00 0.00 88 1014.7
20260507014634 58 203 1.0 4.0 0.00 0.00 0.00 92 1012.7
20260507013031 58 219 1.0 3.0 0.00 0.00 0.00 92 1012.1
20260507003111 60 223 0.0 2.0 0.00 0.00 0.00 92 1011.5
20260506234556 60 231 1.0 4.0 0.00 0.00 0.00 90 1011.4
20260506230109 60 221 0.0 2.0 0.00 0.00 0.00 89 1011.0
20260506224654 60 245 0.0 3.0 0.00 0.00 0.00 89 1011.1
20260506223050 60 209 0.0 3.0 0.00 0.00 0.00 89 1010.9
20260506221606 60 211 1.0 4.0 0.00 0.00 0.00 88 1010.8
20260506204603 63 209 0.0 2.0 0.00 0.00 0.00 84 1010.4
20260506203048 63 131 0.0 3.0 0.00 0.00 0.00 84 1010.3
20260506194635 61 244 0.0 2.0 0.00 0.00 0.00 87 1010.8
20260506191551 60 165 0.0 3.0 0.00 0.00 0.00 87 1010.8
20260506190026 60 213 1.0 4.0 0.00 0.00 0.00 86 1010.5
20260506184543 60 217 1.0 5.0 0.00 0.00 0.00 86 1010.2
20260506180131 61 9 0.0 3.0 0.00 0.00 0.00 83 1011.0
20260506174543 60 136 0.0 3.0 0.00 0.00 0.00 84 1011.4
20260506163004 57 136 0.0 9.0 0.00 0.00 0.00 89 1013.3
20260506161537 57 138 1.0 7.0 0.00 0.00 0.00 87 1013.0
20260506154628 58 169 0.0 3.0 0.00 0.00 0.00 87 1011.8
20260506153107 58 145 0.0 3.0 0.00 0.00 0.00 87 1011.2
20260506151621 58 223 0.0 3.0 0.00 0.00 0.00 87 1011.1
20260506150015 59 230 0.0 2.0 0.00 0.00 0.00 87 1011.2
20260506134536 59 239 0.0 3.0 0.00 0.00 0.00 89 1010.0
20260506130051 61 229 0.0 3.0 0.00 0.00 0.00 89 1009.8
20260506123013 62 227 0.0 1.0 0.00 0.00 0.00 88 1009.0
20260506121634 63 180 0.0 2.0 0.00 0.00 0.00 87 1008.9
20260506120155 64 126 0.0 1.0 0.00 0.00 0.00 86 1008.7
20260506093055 74 76 0.0 6.0 0.00 0.00 0.00 89 1006.7
20260506091657 74 291 1.0 5.0 0.00 0.00 0.00 89 1006.7
20260506090143 74 115 0.0 2.0 0.00 0.00 0.00 89 1006.7
20260506084557 74 66 0.0 3.0 0.00 0.00 0.00 89 1006.6
20260506083146 74 89 0.0 3.0 0.00 0.00 0.00 89 1006.6